�������l�o���
Date,Time,MP-1(��Sv/h),MP-2(��Sv/h),MP-3(��Sv/h),MP-4(��Sv/h),MP-5(��Sv/h),MP-6(��Sv/h),MP-7(��Sv/h),����,����(m/s),���J
2016/04/16,00:00,0.449,0.261,0.471,0.415,0.390,0.213,0.185,���k��,5.0,��
2016/04/16,00:10,0.450,0.261,0.472,0.417,0.391,0.212,0.184,���k��,5.0,��
2016/04/16,00:20,0.453,0.259,0.471,0.416,0.391,0.212,0.183,���k��,3.9,��
2016/04/16,00:30,0.449,0.262,0.472,0.414,0.390,0.212,0.184,��,3.5,��
2016/04/16,00:40,0.450,0.261,0.472,0.415,0.391,0.212,0.185,���쐼,3.7,��
2016/04/16,00:50,0.452,0.260,0.471,0.417,0.390,0.212,0.184,���쐼,4.2,��
2016/04/16,01:00,0.450,0.261,0.472,0.416,0.390,0.213,0.185,��,3.4,��
2016/04/16,01:10,0.451,0.262,0.473,0.415,0.390,0.211,0.184,��,4.2,��
2016/04/16,01:20,0.450,0.261,0.470,0.416,0.390,0.212,0.184,��,4.2,��
2016/04/16,01:30,0.451,0.261,0.471,0.415,0.391,0.210,0.184,��,4.2,��
2016/04/16,01:40,0.451,0.261,0.472,0.415,0.391,0.213,0.184,���k��,4.3,��
2016/04/16,01:50,0.452,0.261,0.470,0.415,0.390,0.214,0.184,���k��,4.8,��
2016/04/16,02:00,0.451,0.260,0.472,0.416,0.390,0.212,0.184,���k��,5.2,��
2016/04/16,02:10,0.451,0.261,0.470,0.415,0.389,0.212,0.185,�k��,4.1,��
2016/04/16,02:20,0.449,0.261,0.471,0.416,0.389,0.212,0.185,���k��,4.9,��
2016/04/16,02:30,0.452,0.262,0.472,0.414,0.391,0.212,0.183,�k��,3.7,��
2016/04/16,02:40,0.451,0.261,0.473,0.415,0.391,0.213,0.185,�k��,3.9,��
2016/04/16,02:50,0.449,0.260,0.470,0.415,0.388,0.213,0.183,���k��,3.1,��
2016/04/16,03:00,0.452,0.261,0.471,0.417,0.390,0.212,0.184,���k��,3.7,��
2016/04/16,03:10,0.450,0.261,0.473,0.415,0.391,0.213,0.183,���k��,3.6,��
2016/04/16,03:20,0.449,0.260,0.472,0.417,0.390,0.211,0.184,���k��,2.7,��
2016/04/16,03:30,0.451,0.261,0.472,0.418,0.391,0.212,0.185,���k��,3.0,��
2016/04/16,03:40,0.450,0.261,0.472,0.417,0.389,0.212,0.185,��,3.7,��
2016/04/16,03:50,0.449,0.261,0.473,0.415,0.391,0.211,0.185,��,3.9,��
2016/04/16,04:00,0.451,0.261,0.471,0.416,0.389,0.212,0.183,���k��,4.0,��
2016/04/16,04:10,0.451,0.260,0.471,0.416,0.390,0.213,0.184,���k��,4.7,��
2016/04/16,04:20,0.450,0.259,0.473,0.416,0.390,0.212,0.184,�k��,1.1,��
2016/04/16,04:30,0.451,0.262,0.471,0.416,0.390,0.211,0.185,���k��,2.2,��
2016/04/16,04:40,0.451,0.261,0.470,0.417,0.389,0.211,0.184,���k��,1.8,��
2016/04/16,04:50,0.449,0.261,0.472,0.417,0.390,0.211,0.184,���k��,1.4,��
2016/04/16,05:00,0.449,0.259,0.470,0.415,0.390,0.213,0.184,��,3.6,��
2016/04/16,05:10,0.451,0.261,0.470,0.416,0.390,0.212,0.185,�쐼,3.3,��
2016/04/16,05:20,0.450,0.262,0.472,0.417,0.389,0.212,0.184,�쐼,2.8,��
2016/04/16,05:30,0.450,0.261,0.470,0.416,0.392,0.213,0.185,�쐼,2.8,��
2016/04/16,05:40,0.450,0.259,0.472,0.416,0.390,0.212,0.184,�쐼,5.2,��
2016/04/16,05:50,0.450,0.261,0.471,0.415,0.389,0.212,0.184,��쐼,6.2,��
2016/04/16,06:00,0.452,0.261,0.474,0.416,0.392,0.211,0.184,��쐼,6.4,��
2016/04/16,06:10,0.449,0.262,0.472,0.414,0.392,0.213,0.185,��쐼,6.4,��
2016/04/16,06:20,0.450,0.260,0.469,0.416,0.390,0.211,0.185,��쐼,4.8,��
2016/04/16,06:30,0.450,0.260,0.472,0.415,0.390,0.211,0.184,��쐼,5.0,��
2016/04/16,06:40,0.449,0.261,0.470,0.415,0.392,0.212,0.184,��쐼,4.0,��
2016/04/16,06:50,0.450,0.260,0.470,0.416,0.389,0.211,0.185,��쐼,4.7,��
2016/04/16,07:00,0.449,0.258,0.473,0.416,0.390,0.211,0.183,��,3.9,��
2016/04/16,07:10,0.451,0.260,0.468,0.414,0.390,0.212,0.184,��,3.1,��
2016/04/16,07:20,0.451,0.259,0.470,0.417,0.389,0.211,0.183,��쓌,2.8,��
2016/04/16,07:30,0.450,0.261,0.469,0.413,0.391,0.212,0.183,��쓌,2.9,��
2016/04/16,07:40,0.451,0.259,0.468,0.417,0.391,0.212,0.184,��,2.9,��
2016/04/16,07:50,0.451,0.258,0.472,0.413,0.390,0.211,0.183,��,2.8,��
2016/04/16,08:00,0.449,0.260,0.469,0.415,0.390,0.212,0.184,��쐼,3.6,��
2016/04/16,08:10,0.452,0.259,0.472,0.413,0.389,0.211,0.184,��쐼,2.8,��
2016/04/16,08:20,0.447,0.259,0.470,0.416,0.391,0.212,0.182,��쓌,2.5,��
2016/04/16,08:30,0.450,0.260,0.469,0.412,0.388,0.211,0.184,��,4.5,��
2016/04/16,08:40,0.446,0.260,0.472,0.417,0.393,0.211,0.183,��,5.4,��
2016/04/16,08:50,0.449,0.260,0.468,0.412,0.388,0.213,0.185,��,4.4,��
2016/04/16,09:00,0.447,0.258,0.472,0.418,0.394,0.212,0.183,��,4.9,��
2016/04/16,09:10,0.446,0.260,0.469,0.415,0.389,0.213,0.184,��,4.7,��
2016/04/16,09:20,0.451,0.259,0.474,0.413,0.392,0.211,0.185,��,5.2,��
2016/04/16,09:30,0.446,0.261,0.471,0.415,0.390,0.212,0.184,��,5.8,��
2016/04/16,09:40,0.451,0.260,0.471,0.413,0.395,0.210,0.183,��,10.0,��
2016/04/16,09:50,0.448,0.262,0.470,0.418,0.389,0.212,0.184,��,10.7,��
2016/04/16,10:00,0.448,0.261,0.472,0.413,0.393,0.211,0.184,��,11.8,��
2016/04/16,10:10,0.451,0.261,0.471,0.417,0.389,0.213,0.184,��,11.5,��
2016/04/16,10:20,0.447,0.260,0.472,0.416,0.393,0.212,0.183,��,13.3,��
2016/04/16,10:30,0.453,0.261,0.471,0.414,0.390,0.212,0.184,��,12.5,��
2016/04/16,10:40,0.451,0.261,0.472,0.419,0.393,0.212,0.184,��,15.1,��
2016/04/16,10:50,0.451,0.260,0.467,0.414,0.390,0.213,0.182,��,12.4,��
2016/04/16,11:00,0.451,0.262,0.471,0.420,0.394,0.211,0.184,��,12.2,��
2016/04/16,11:10,0.449,0.260,0.472,0.416,0.391,0.212,0.184,��,12.6,��
2016/04/16,11:20,0.452,0.261,0.472,0.420,0.395,0.212,0.185,��,13.1,��
2016/04/16,11:30,0.449,0.262,0.470,0.417,0.391,0.212,0.184,��,14.2,��
2016/04/16,11:40,0.454,0.262,0.473,0.418,0.395,0.213,0.184,��,14.0,��
2016/04/16,11:50,0.449,0.262,0.473,0.418,0.391,0.213,0.184,��,14.3,��
2016/04/16,12:00,0.453,0.261,0.472,0.417,0.393,0.211,0.184,��,14.1,��
2016/04/16,12:10,0.451,0.263,0.471,0.419,0.394,0.213,0.184,��,12.4,��
2016/04/16,12:20,0.453,0.262,0.472,0.416,0.392,0.212,0.185,��쐼,13.7,��
2016/04/16,12:30,0.451,0.262,0.469,0.418,0.392,0.213,0.186,��,12.8,��
2016/04/16,12:40,0.452,0.259,0.473,0.417,0.393,0.213,0.186,��,12.7,��
2016/04/16,12:50,0.447,0.262,0.469,0.416,0.390,0.214,0.185,��,13.5,��
2016/04/16,13:00,0.452,0.259,0.470,0.419,0.394,0.211,0.186,��쐼,15.7,��
2016/04/16,13:10,0.450,0.261,0.473,0.413,0.391,0.214,0.184,��,12.9,��
2016/04/16,13:20,0.449,0.262,0.465,0.417,0.392,0.212,0.185,��,15.3,��
2016/04/16,13:30,0.452,0.261,0.470,0.417,0.393,0.211,0.185,��,15.5,��
2016/04/16,13:40,0.446,0.263,0.472,0.416,0.389,0.212,0.185,��,15.4,��
2016/04/16,13:50,0.453,0.260,0.468,0.419,0.394,0.212,0.186,��,14.3,��
2016/04/16,14:00,0.449,0.261,0.473,0.416,0.390,0.213,0.185,��,17.7,��
2016/04/16,14:10,0.452,0.262,0.471,0.420,0.394,0.212,0.185,��,15.4,��
2016/04/16,14:20,0.450,0.262,0.472,0.417,0.392,0.214,0.185,��,15.2,��
2016/04/16,14:30,0.451,0.262,0.475,0.420,0.393,0.212,0.185,��,15.4,��
2016/04/16,14:40,0.451,0.263,0.470,0.416,0.393,0.213,0.186,��,15.3,��
2016/04/16,14:50,0.451,0.261,0.476,0.422,0.393,0.213,0.186,��,15.4,��
2016/04/16,15:00,0.453,0.263,0.472,0.418,0.393,0.213,0.186,��,14.7,��
2016/04/16,15:10,0.450,0.261,0.476,0.420,0.393,0.212,0.185,��쐼,16.2,��
2016/04/16,15:20,0.455,0.262,0.471,0.419,0.393,0.212,0.186,��,14.3,��
2016/04/16,15:30,0.452,0.261,0.474,0.421,0.395,0.213,0.185,��,13.1,��
2016/04/16,15:40,0.453,0.262,0.472,0.418,0.391,0.214,0.185,��,13.5,��
2016/04/16,15:50,0.453,0.261,0.475,0.420,0.395,0.211,0.185,��,13.3,��
2016/04/16,16:00,0.454,0.262,0.472,0.421,0.391,0.213,0.186,��,12.3,��
2016/04/16,16:10,0.449,0.261,0.475,0.419,0.395,0.212,0.185,��,12.0,��
2016/04/16,16:20,0.452,0.261,0.472,0.419,0.392,0.213,0.186,��,11.2,��
2016/04/16,16:30,0.452,0.260,0.472,0.419,0.394,0.212,0.187,��,12.2,��
2016/04/16,16:40,0.454,0.262,0.473,0.420,0.393,0.213,0.186,��,12.4,��
2016/04/16,16:50,0.451,0.261,0.475,0.417,0.394,0.212,0.187,��,11.5,��
2016/04/16,17:00,0.452,0.261,0.473,0.421,0.392,0.213,0.186,��,11.5,��
2016/04/16,17:10,0.450,0.262,0.475,0.420,0.394,0.213,0.186,��,11.5,��
2016/04/16,17:20,0.450,0.260,0.472,0.420,0.391,0.212,0.186,��,12.2,��
2016/04/16,17:30,0.453,0.262,0.476,0.418,0.395,0.213,0.185,��,11.5,��
2016/04/16,17:40,0.451,0.261,0.473,0.419,0.391,0.213,0.186,��,11.5,��
2016/04/16,17:50,0.453,0.261,0.476,0.422,0.396,0.213,0.185,��쐼,11.5,��
2016/04/16,18:00,0.449,0.261,0.472,0.418,0.395,0.213,0.185,��쐼,11.4,��
2016/04/16,18:10,0.454,0.261,0.474,0.422,0.395,0.213,0.186,��쐼,11.9,��
2016/04/16,18:20,0.451,0.263,0.472,0.420,0.394,0.212,0.185,��쐼,12.6,��
2016/04/16,18:30,0.454,0.261,0.474,0.421,0.393,0.214,0.187,��쐼,12.5,��
2016/04/16,18:40,0.451,0.262,0.475,0.419,0.394,0.213,0.186,��쐼,11.3,��
2016/04/16,18:50,0.452,0.262,0.473,0.418,0.392,0.212,0.186,��쐼,11.3,��
2016/04/16,19:00,0.454,0.261,0.475,0.420,0.392,0.213,0.186,��쐼,11.5,��
2016/04/16,19:10,0.450,0.263,0.473,0.418,0.392,0.213,0.185,��쐼,11.8,��
2016/04/16,19:20,0.453,0.261,0.477,0.420,0.393,0.214,0.187,��쐼,12.8,��
2016/04/16,19:30,0.451,0.263,0.472,0.419,0.393,0.213,0.186,��쐼,11.7,��
2016/04/16,19:40,0.454,0.262,0.477,0.419,0.392,0.214,0.186,��쐼,12.1,��
2016/04/16,19:50,0.450,0.262,0.472,0.421,0.394,0.213,0.186,��쐼,12.2,��
2016/04/16,20:00,0.452,0.262,0.476,0.418,0.390,0.213,0.186,��쐼,12.3,��
2016/04/16,20:10,0.450,0.260,0.473,0.420,0.393,0.213,0.186,��쐼,12.8,��
2016/04/16,20:20,0.453,0.262,0.473,0.419,0.392,0.212,0.186,��쐼,13.9,��
2016/04/16,20:30,0.451,0.261,0.473,0.421,0.392,0.212,0.185,��쐼,13.1,��
2016/04/16,20:40,0.451,0.263,0.472,0.418,0.392,0.212,0.185,��쐼,13.4,��
2016/04/16,20:50,0.453,0.263,0.475,0.420,0.392,0.213,0.186,��쐼,13.4,��
2016/04/16,21:00,0.452,0.260,0.471,0.417,0.395,0.212,0.186,��쐼,12.2,��
2016/04/16,21:10,0.452,0.261,0.474,0.420,0.391,0.212,0.186,��쐼,11.6,��
2016/04/16,21:20,0.449,0.261,0.474,0.419,0.395,0.215,0.186,��쐼,10.1,��
2016/04/16,21:30,0.454,0.261,0.475,0.419,0.392,0.212,0.186,��쐼,9.5,��
2016/04/16,21:40,0.452,0.261,0.471,0.421,0.393,0.213,0.185,��쐼,11.3,��
2016/04/16,21:50,0.454,0.261,0.477,0.417,0.394,0.213,0.186,��쐼,12.3,��
2016/04/16,22:00,0.451,0.262,0.473,0.422,0.393,0.212,0.186,��쐼,13.1,��
2016/04/16,22:10,0.452,0.262,0.476,0.418,0.394,0.213,0.186,��쐼,12.6,��
2016/04/16,22:20,0.451,0.261,0.472,0.419,0.390,0.213,0.186,��쐼,11.8,��
2016/04/16,22:30,0.451,0.263,0.475,0.418,0.395,0.213,0.186,��쐼,11.9,��
2016/04/16,22:40,0.452,0.261,0.472,0.420,0.392,0.213,0.187,��쐼,9.8,��
2016/04/16,22:50,0.451,0.264,0.474,0.419,0.393,0.213,0.185,��쐼,10.1,��
2016/04/16,23:00,0.451,0.261,0.473,0.419,0.392,0.213,0.186,��쐼,11.0,��
2016/04/16,23:10,0.451,0.261,0.475,0.419,0.394,0.215,0.187,��쐼,9.9,��
2016/04/16,23:20,0.453,0.262,0.475,0.419,0.393,0.213,0.186,��쐼,9.7,��
2016/04/16,23:30,0.449,0.262,0.474,0.420,0.391,0.213,0.186,��쐼,10.6,��
2016/04/16,23:40,0.451,0.263,0.475,0.419,0.394,0.213,0.185,��쐼,11.5,��
2016/04/16,23:50,0.451,0.260,0.473,0.420,0.391,0.213,0.187,��쐼,10.4,��
